sat.trackr.live / text

‹ back to catalog

GEESAT-2 07

NORAD 58911 · 2024-023G

PAYLOAD ACTIVE UNKNOWN

§ Identity

Operator
Country
PRC
Launch date
2024-02-02
Launch site
XICLF
Launch vehicle
Mass (kg)
RCS (m²)

External: N2YO · Heavens-Above · Gunter

§ Orbital elements

Epoch: 2026-09-22T14:21:21.470688Z

Period
97.07 min
Inclination
50.0053°
Eccentricity
0.0009638
Mean motion
14.83438157 rev/d
Perigee alt
611.7 km
Apogee alt
625.2 km
Semi-major
6,996.6 km
B*
1.4358e-4
RAAN
263.5927°
Arg perigee
71.3783°
Mean anomaly
288.8201°
Rev number
14,337

§ Raw data

GEESAT-2 071 58911U 24023G   26265.59816517  .00000965  00000+0  14358-3 0  99912 58911  50.0053 263.5927 0009638  71.3783 288.8201 14.83438157143379

JSON: /api/v1/satellites/58911 · /tle

For live sub-satellite position, see the globe view (requires WebGL).

§ Visibility from observer

Set your observer location to see the next 7 days of passes ≥ 10°. The values pass through the URL so the page stays shareable.

No JS? Fill the form by hand. The geolocation button needs JavaScript.